Temperature
21 21 21 21 21 22 22 23 23 24 24 24 24 24 23 21 21 19 18 18 18 18 18 18 17 17 17 17 17 17 17 17 17 17 17 17 17 17 17 17 17 17 17 17 17 17 17 17 17
21 21 21 22 22 22 22 23 23 23 24 23 23 23 22 21 19 18 18 18 18 17 17 17 17 17 17 17 17 17 17 17 17 17 17 17 17 17 17 17 17 17 17 17 17 17 17 17 17
22 22 22 23 23 23 23 23 23 24 24 24 23 22 21 20 19 18 18 18 18 17 17 17 17 17 17 17 17 17 17 17 17 17 17 17 17 17 17 17 17 17 17 17 17 17 17 17 17
22 22 23 23 23 23 23 23 24 24 24 23 23 22 20 19 19 18 18 18 18 17 17 18 18 17 17 17 17 17 17 17 17 17 17 17 17 17 17 17 17 17 17 17 17 17 17 17 17
22 23 23 23 23 24 24 24 24 24 24 23 22 21 19 19 19 18 18 18 18 17 17 18 18 17 17 17 17 17 17 17 17 17 17 17 17 17 16 16 17 17 17 17 17 17 17 17 17
23 24 23 23 23 24 24 24 24 24 23 23 22 21 19 19 18 18 18 18 18 17 17 18 18 18 17 17 17 17 17 17 17 17 17 17 17 17 16 16 16 16 16 17 17 17 17 17 17
23 23 23 23 23 23 24 24 24 23 23 23 22 21 19 19 18 18 18 18 18 18 17 17 17 17 17 17 17 17 17 17 17 16 16 16 16 17 17 16 16 16 16 16 17 17 17 17 17
24 24 24 24 23 23 24 24 24 23 23 22 22 21 19 19 18 18 18 18 18 18 18 17 17 17 17 17 17 17 17 17 17 17 16 16 16 16 16 16 16 16 16 16 16 16 16 16 16
24 23 23 23 23 23 24 24 23 23 22 22 21 21 19 19 19 18 18 18 18 18 18 17 17 17 17 17 17 17 17 17 17 17 16 16 16 16 16 16 16 16 16 16 16 16 16 16 16
25 22 23 24 24 24 24 23 23 23 22 22 21 20 19 19 19 19 18 18 18 18 18 18 18 17 17 17 17 17 17 17 17 17 17 16 16 16 16 16 16 16 16 16 16 16 16 16 16
25 23 24 24 24 24 24 23 23 23 22 21 20 20 19 19 19 19 19 18 18 18 18 18 18 18 17 17 17 17 17 17 17 17 17 17 17 16 16 16 16 16 16 16 16 16 16 16 16
24 24 24 24 24 24 24 23 23 22 22 21 21 20 20 20 19 19 19 19 19 18 18 18 18 18 18 17 17 17 17 17 17 17 17 17 17 16 16 16 16 16 16 16 16 16 16 16 16
24 24 24 24 24 24 23 23 22 22 21 21 21 20 20 20 20 19 19 19 19 18 18 18 18 18 18 17 17 17 17 17 17 17 17 17 17 17 16 16 16 16 16 16 16 16 16 16 16
24 24 24 24 24 23 23 23 23 22 21 21 21 20 20 20 20 20 19 19 19 19 19 18 18 18 18 18 17 17 17 17 17 17 17 17 17 17 16 16 16 16 16 16 16 16 16 16 16
24 24 24 24 24 24 23 23 23 22 21 21 21 21 20 20 20 20 19 19 19 19 19 18 18 18 18 18 17 17 17 17 17 17 17 17 17 17 16 16 16 16 16 16 16 16 16 16 16
24 23 22 24 24 24 23 21 22 22 22 21 21 21 20 20 20 20 19 19 19 19 19 18 18 18 18 17 17 17 17 17 17 17 17 17 17 16 16 16 16 16 16 16 16 16 15 15 15
23 23 23 23 24 24 23 22 23 22 22 22 21 21 20 20 20 19 19 19 19 19 19 18 18 18 18 17 17 17 17 17 17 16 16 16 16 16 16 16 16 16 16 16 15 15 15 15 15
23 23 23 23 24 24 23 22 23 23 23 22 22 21 21 20 20 20 19 19 19 19 19 18 18 18 17 17 17 17 17 17 16 16 16 16 16 16 16 16 16 16 15 15 15 15 15 15 15
24 24 23 24 24 24 23 23 23 23 23 22 22 22 21 20 20 20 19 19 19 19 19 18 18 18 17 17 17 17 17 16 16 16 16 16 16 16 16 16 15 15 15 15 15 15 15 15 15
24 24 23 24 24 24 23 23 24 23 23 23 22 22 21 21 20 19 19 19 19 19 18 18 18 18 17 17 17 17 16 16 16 16 16 16 16 16 16 15 15 15 15 15 15 15 15 14 15
25 24 24 24 24 25 24 23 23 24 23 23 22 22 21 21 20 19 19 19 19 18 18 18 18 18 17 17 17 16 16 16 16 16 16 16 16 16 16 15 15 15 15 15 15 14 14 14 14
24 25 25 24 23 23 24 22 23 23 23 23 22 22 22 21 20 19 19 19 19 18 18 18 18 17 17 17 17 16 16 16 16 16 16 16 16 16 15 15 15 15 15 15 14 14 14 14 14
24 25 25 25 24 23 24 23 23 24 22 22 22 22 22 21 20 19 19 19 18 18 18 18 18 18 17 17 17 16 16 16 16 16 16 15 15 15 15 15 15 15 15 15 14 14 14 14 14
25 25 25 25 24 22 24 23 22 23 23 23 22 22 21 21 20 20 19 19 18 18 18 18 17 17 17 17 17 16 16 16 16 16 15 15 15 15 15 15 15 15 14 14 14 14 14 14 14
25 23 22 22 22 23 25 24 23 24 24 24 23 22 21 21 20 20 19 18 18 18 17 17 17 17 17 17 16 16 16 16 16 16 15 15 15 15 15 15 15 15 14 14 14 14 14 14 14
25 24 22 22 22 24 25 24 23 24 24 24 23 22 21 21 20 20 19 18 18 18 17 17 17 17 17 16 16 16 16 16 16 16 15 15 15 15 15 15 15 14 14 14 14 14 14 14 14
24 24 25 24 24 23 24 24 23 24 24 23 23 22 21 21 20 20 19 18 18 18 17 17 17 17 16 16 16 16 16 16 16 15 15 15 15 15 15 15 14 14 14 14 14 14 14 13 13
25 25 24 23 22 22 23 23 22 23 23 23 23 22 21 21 20 20 19 18 18 17 17 17 17 16 16 16 16 16 16 16 16 15 15 15 15 15 15 14 14 14 14 14 13 13 13 13 13
25 24 24 23 23 22 22 22 24 23 23 23 23 22 21 21 20 20 19 18 18 17 17 17 16 16 16 16 16 16 16 15 15 15 15 15 15 15 14 14 14 14 14 13 13 13 13 13 13
25 25 24 22 22 23 22 22 25 24 24 23 23 22 21 20 20 19 18 18 17 17 17 16 16 16 16 16 16 16 15 15 15 15 15 15 15 14 14 14 14 14 13 13 13 13 13 13 13
Wind_Speed
7 9 6 2 2 0 5 5 6 7 7 8 8 9 12 12 8 7 2 3 8 10 11 10 9 9 9 9 9 9 10 9 10 10 10 11 11 12 12 12 12 12 12 11 11 11 12 11 11
7 4 3 3 2 2 5 6 7 8 6 5 8 11 12 11 10 7 4 4 7 9 11 10 9 9 10 10 9 9 9 10 10 10 11 11 11 11 12 11 11 11 11 12 12 12 12 11 11
9 6 3 2 3 4 5 7 7 8 7 6 7 11 9 7 8 5 5 5 7 9 11 10 9 9 10 10 9 9 9 10 10 11 11 11 11 11 11 11 10 11 11 11 11 11 11 11 11
5 3 2 0 7 8 7 6 6 7 6 6 8 9 8 8 6 6 6 6 8 9 12 10 9 9 9 9 9 10 10 10 10 11 11 11 11 11 11 10 10 10 11 11 11 11 11 11 10
4 2 1 3 7 7 7 6 6 8 6 8 11 10 8 8 9 8 6 6 8 9 12 11 10 9 9 9 9 10 9 10 10 10 11 11 11 11 10 10 10 11 11 11 11 11 11 10 9
3 2 1 4 7 7 6 6 7 8 8 7 10 10 7 7 7 6 6 6 8 9 11 12 11 10 10 10 9 9 9 10 10 10 10 10 10 10 10 10 10 11 11 10 10 10 10 9 9
3 2 1 5 6 5 5 6 6 7 7 6 6 8 7 6 5 5 6 7 7 7 8 10 11 10 10 10 10 9 9 9 9 8 9 9 9 9 10 10 10 10 10 9 9 9 9 8 8
2 2 2 4 6 5 5 4 6 7 6 5 5 6 6 7 6 5 6 6 6 5 6 7 8 10 11 10 9 9 8 8 8 7 7 7 7 8 9 10 10 10 9 9 7 7 6 7 7
2 1 3 4 5 5 5 5 5 7 7 7 9 10 10 10 8 7 6 5 5 6 5 5 5 6 9 10 9 8 8 7 7 7 7 7 6 8 8 9 9 8 7 6 5 5 4 4 5
1 1 4 5 6 6 6 5 5 5 8 8 10 11 11 9 8 7 6 6 6 5 4 4 4 5 6 6 8 7 7 7 6 6 7 6 7 8 9 9 8 6 5 3 2 2 1 1 2
2 4 5 7 7 6 7 6 5 6 5 7 10 10 8 8 6 6 6 5 6 5 4 5 4 5 5 4 5 4 4 4 4 5 6 6 7 7 7 7 6 4 4 2 1 2 2 3 5
5 6 6 6 6 6 6 6 6 7 5 7 9 10 8 7 6 5 6 6 6 6 5 4 4 4 5 5 4 3 3 3 3 3 6 6 3 3 3 4 4 3 4 3 4 4 6 7 8
5 5 6 6 6 6 6 6 6 7 8 8 8 8 7 6 6 5 4 6 7 6 5 4 3 5 6 5 2 3 3 3 4 3 5 7 3 2 2 3 4 4 4 4 4 5 6 6 7
6 6 6 5 5 6 6 5 5 6 7 7 6 6 6 6 6 6 4 4 6 5 5 5 4 5 5 4 3 3 3 4 4 3 4 7 5 3 2 3 3 3 4 4 4 5 4 4 5
6 6 5 4 4 4 4 3 4 6 7 7 6 5 5 5 5 5 4 4 5 5 5 5 5 5 4 4 3 3 4 5 4 4 4 6 7 4 4 3 2 3 6 7 6 6 5 4 4
5 3 3 4 4 4 2 2 5 6 6 6 6 6 6 5 5 5 5 4 4 4 6 5 4 5 5 4 3 3 4 5 4 4 5 6 7 7 5 3 3 5 5 4 3 3 4 4 3
5 4 4 4 4 4 3 3 6 7 6 6 7 7 6 6 5 6 6 5 5 4 6 6 5 4 5 4 3 3 4 4 4 5 4 5 5 7 5 3 3 5 4 3 3 4 3 3 3
3 3 3 3 4 3 3 3 6 6 6 6 6 7 6 6 5 6 5 5 5 4 5 6 5 5 5 4 3 3 3 3 4 4 4 4 4 6 6 3 4 5 3 3 3 3 3 2 2
3 2 2 2 3 3 3 4 6 7 5 6 6 6 6 6 6 5 5 5 4 4 4 5 5 5 5 3 2 3 2 2 3 2 3 3 4 5 5 3 3 3 3 3 3 3 2 1 1
4 3 2 2 3 3 4 5 6 7 7 5 5 6 6 7 7 6 4 5 4 4 4 5 4 5 5 3 3 3 2 2 3 2 2 3 4 4 4 3 2 3 3 3 2 3 2 0 0
3 3 2 2 4 6 5 5 6 8 7 5 4 5 6 7 8 8 5 4 3 4 4 4 4 5 5 5 3 3 2 1 2 2 1 1 3 4 3 3 2 2 2 2 1 2 2 1 1
3 2 3 5 4 4 6 3 5 9 8 7 6 4 5 6 7 7 6 5 4 3 4 3 4 4 5 5 4 4 3 2 3 2 2 2 4 4 3 3 2 2 2 2 1 2 1 1 1
3 3 5 7 6 6 7 5 4 8 7 8 7 6 5 6 7 8 7 5 5 4 3 3 4 4 4 5 5 3 2 2 2 3 3 2 2 3 3 3 1 1 2 2 2 2 1 1 0
3 6 8 8 6 6 6 4 2 5 5 7 7 6 6 6 7 7 7 6 5 5 4 3 3 3 3 4 5 4 4 3 3 3 3 2 2 2 2 3 1 1 2 2 1 2 2 0 0
5 5 3 4 5 3 4 3 2 5 5 5 6 6 6 5 7 7 8 7 5 6 4 3 4 3 3 4 4 4 4 4 4 3 3 3 2 2 2 2 1 1 2 2 1 1 1 1 1
5 5 4 3 3 2 2 2 5 8 6 5 6 6 6 6 5 6 7 7 6 6 5 4 4 4 3 3 4 4 4 2 2 3 3 3 2 2 2 2 2 2 2 2 1 1 0 1 1
4 4 5 5 8 4 2 4 6 6 7 6 5 6 6 6 6 6 6 6 6 6 5 5 5 5 4 4 3 4 4 3 2 2 2 3 3 3 3 3 2 3 2 1 1 1 0 1 1
6 6 4 4 4 4 1 3 4 6 6 6 5 5 5 5 6 6 5 5 5 5 4 4 4 5 4 3 2 2 2 3 3 2 2 2 3 3 3 3 3 3 2 2 2 1 1 2 1
4 4 4 4 4 3 3 1 4 6 5 5 5 5 4 4 4 5 5 5 5 4 4 3 3 3 4 4 3 3 3 3 3 3 2 2 3 3 4 4 4 4 3 3 3 2 2 1 1
3 4 3 3 4 4 3 1 4 6 6 4 4 4 5 5 4 5 5 5 4 4 3 2 2 2 2 3 3 4 3 3 3 3 3 3 3 3 4 3 3 3 3 3 3 3 3 3 2
Wind_Direction
255 237 235 244 251 154 65 61 56 50 56 51 52 63 66 53 53 89 126 83 96 102 104 92 84 84 84 85 84 85 86 84 82 81 78 77 76 76 77 76 75 73 72 71 69 68 68 66 63
272 252 250 234 243 101 76 73 69 63 71 65 58 65 70 65 73 95 98 86 96 98 97 91 88 87 85 83 84 87 87 84 84 83 81 79 78 77 76 76 77 76 74 72 69 69 68 64 61
261 253 258 264 32 70 85 80 84 78 64 66 72 62 57 59 74 91 110 112 96 94 95 95 92 90 87 85 85 89 90 88 88 86 82 80 80 79 77 78 77 77 76 74 70 68 67 64 60
258 249 248 63 68 64 83 98 104 96 73 65 84 75 67 48 71 101 113 109 99 100 101 103 98 94 91 91 89 90 90 92 91 89 86 83 82 81 79 79 79 79 77 73 71 68 66 63 59
242 248 228 94 82 79 73 75 86 85 76 67 82 89 81 68 87 101 110 104 104 104 107 108 105 100 95 94 92 91 92 92 91 93 91 88 86 86 84 80 79 80 78 74 70 67 64 62 57
265 250 207 98 93 86 72 65 75 84 84 81 95 99 91 93 90 101 108 105 102 107 114 115 116 110 105 99 97 99 100 97 96 96 95 94 91 89 87 83 81 79 77 75 72 66 63 61 57
269 283 92 109 101 92 82 66 67 87 82 67 88 101 109 101 97 102 98 90 91 103 117 126 132 126 118 109 104 104 106 107 108 108 108 107 104 98 93 87 84 81 77 77 76 71 67 67 62
297 304 94 102 108 95 85 77 74 79 75 65 73 105 122 128 120 109 99 98 104 102 107 122 131 133 130 124 119 119 120 124 130 133 135 131 124 114 104 95 91 87 84 80 80 83 80 72 61
281 321 74 90 105 104 105 89 75 87 89 72 73 98 122 130 125 122 114 108 98 91 95 105 117 119 126 134 135 144 144 149 156 164 168 162 148 128 116 107 107 101 96 89 89 94 90 80 63
169 55 68 78 103 114 108 98 107 105 96 93 92 102 119 132 135 139 138 129 118 113 116 116 118 115 115 116 135 152 144 156 169 161 163 155 125 113 118 124 127 127 124 123 132 137 127 78 86
68 80 74 78 88 109 112 97 89 104 101 114 123 127 134 143 142 140 129 128 125 124 119 118 115 116 112 105 108 101 117 152 153 136 134 117 117 125 125 138 148 156 153 129 105 103 92 88 80
90 77 86 90 89 96 100 93 76 68 89 103 118 133 144 149 137 134 131 130 119 115 112 119 122 115 109 99 104 127 118 106 94 99 111 102 95 104 118 117 120 114 92 71 56 58 58 56 61
111 99 94 100 112 107 99 96 95 94 103 110 124 135 141 138 129 121 108 116 115 115 120 108 100 99 97 91 96 97 89 89 90 73 103 108 106 105 113 107 88 84 81 81 74 65 56 53 49
116 120 118 118 113 114 112 115 113 119 122 123 128 135 145 133 127 121 117 127 123 124 119 105 94 88 98 112 97 88 94 93 87 73 85 107 104 99 93 93 84 82 87 82 86 85 75 68 60
138 140 134 143 151 139 127 110 126 139 138 139 147 147 134 128 130 130 135 123 119 126 114 102 101 96 89 87 90 100 103 97 83 72 67 95 99 95 94 83 80 73 68 70 69 68 66 76 71
167 181 168 165 170 154 186 149 143 151 155 159 157 149 147 146 147 138 130 116 109 117 116 110 109 102 91 86 81 84 88 87 87 75 53 66 88 88 82 77 81 80 73 80 74 66 61 56 58
196 203 170 163 173 168 184 177 162 168 174 170 161 158 163 161 157 143 136 132 121 122 124 124 119 114 107 102 96 75 80 80 81 74 61 57 77 93 89 76 84 80 77 61 62 63 57 63 57
204 186 186 182 170 184 195 191 167 173 183 176 172 166 169 162 156 140 134 131 131 132 123 123 128 123 113 103 96 87 71 79 81 76 71 59 54 83 94 92 84 81 74 61 62 74 55 51 51
212 203 216 172 161 199 209 207 180 178 188 184 176 170 169 161 149 144 142 134 136 132 122 126 137 135 121 106 99 102 96 100 95 93 89 83 76 79 92 92 87 86 88 82 81 89 74 64 77
211 218 213 169 198 228 226 217 189 176 184 186 184 180 173 164 155 149 155 144 156 147 138 131 140 128 120 121 121 122 123 110 107 91 84 84 84 87 92 95 97 91 93 84 79 95 77 4 65
226 241 231 238 235 229 222 223 197 176 172 177 189 182 172 166 161 157 158 152 156 155 156 148 146 133 130 135 118 112 108 106 105 109 92 78 100 96 84 95 99 105 102 114 106 90 80 33 329
271 260 238 237 249 246 224 226 202 178 166 178 184 185 172 163 156 155 159 160 158 152 141 145 139 138 140 136 132 152 161 158 149 140 133 118 104 102 95 96 113 132 114 122 141 94 89 79 347
292 296 261 254 251 258 240 237 200 162 174 180 175 177 175 163 158 157 157 160 159 144 132 144 137 131 125 125 131 148 145 141 134 133 133 118 102 106 106 101 94 128 128 133 120 105 79 98 86
270 270 259 249 252 255 230 223 187 163 172 168 167 172 173 166 155 153 152 151 148 131 125 122 122 116 116 127 140 151 141 136 136 135 141 132 122 120 120 122 124 104 111 130 141 139 128 119 49
252 267 273 231 219 231 195 184 119 104 105 128 152 164 165 162 155 156 154 154 149 138 137 144 141 139 151 162 159 163 159 166 166 161 149 140 132 124 130 116 115 100 85 98 95 115 147 153 123
257 267 286 299 287 264 199 154 113 102 95 108 130 146 154 156 150 149 150 154 152 149 156 164 165 167 173 183 174 166 158 165 152 150 146 151 149 142 138 122 119 98 85 72 66 82 49 117 116
285 282 288 294 289 276 180 134 125 119 119 120 127 136 147 156 147 146 147 150 152 158 166 180 180 172 172 182 185 161 157 155 147 151 149 137 145 156 145 139 148 124 118 114 101 96 34 74 76
264 290 290 289 308 298 240 161 146 140 134 137 136 134 143 144 145 147 149 149 153 152 160 174 173 170 163 159 171 152 152 148 142 158 162 157 161 146 145 151 157 151 153 146 128 87 60 71 66
235 255 273 284 287 297 298 55 80 119 114 117 126 129 133 133 138 141 138 143 139 139 148 165 177 168 164 169 169 161 158 164 165 169 179 179 172 164 170 171 173 172 174 164 149 153 165 160 179
265 269 277 276 296 298 298 86 87 103 103 105 117 128 132 130 126 125 129 131 131 140 153 165 166 158 161 168 160 162 158 179 179 177 191 190 181 175 171 172 171 164 159 162 165 177 179 182 186
Height
1496 1497 1498 1500 1501 1504 1507 1504 1500 1499 1500 1502 1502 1502 1506 1510 1515 1526 1525 1524 1524 1523 1523 1523 1523 1523 1524 1524 1525 1525 1526 1526 1527 1528 1528 1528 1529 1529 1530 1530 1530 1530 1530 1530 1531 1531 1531 1531 1531
1497 1498 1500 1500 1503 1510 1511 1503 1503 1503 1503 1504 1504 1506 1509 1514 1518 1522 1523 1524 1525 1524 1524 1524 1524 1524 1525 1525 1526 1526 1527 1527 1528 1529 1529 1530 1530 1531 1531 1531 1532 1532 1532 1532 1532 1532 1532 1532 1532
1498 1499 1500 1498 1501 1507 1509 1504 1504 1504 1505 1505 1507 1510 1514 1518 1521 1523 1524 1525 1526 1525 1525 1525 1525 1525 1526 1527 1527 1528 1528 1529 1529 1530 1531 1531 1532 1532 1533 1533 1533 1533 1533 1533 1533 1533 1534 1534 1534
1500 1501 1500 1501 1505 1503 1503 1503 1503 1505 1506 1507 1508 1513 1519 1522 1523 1524 1525 1526 1526 1526 1526 1526 1526 1527 1527 1528 1528 1529 1529 1530 1530 1531 1532 1532 1533 1533 1534 1534 1534 1535 1535 1535 1535 1535 1535 1535 1535
1501 1500 1501 1504 1504 1503 1502 1503 1504 1506 1507 1509 1511 1517 1522 1524 1524 1525 1526 1527 1528 1528 1527 1527 1527 1528 1528 1529 1529 1530 1531 1531 1532 1533 1533 1534 1534 1535 1535 1536 1536 1536 1536 1536 1536 1536 1536 1536 1536
1501 1498 1505 1509 1506 1504 1504 1505 1506 1507 1510 1511 1514 1518 1524 1526 1526 1527 1527 1528 1529 1529 1529 1529 1529 1529 1530 1530 1531 1531 1532 1533 1533 1534 1534 1535 1536 1536 1537 1537 1537 1538 1538 1538 1538 1538 1538 1538 1538
1501 1500 1503 1505 1508 1507 1506 1507 1508 1510 1511 1513 1514 1519 1524 1526 1527 1528 1529 1530 1530 1530 1530 1530 1530 1531 1531 1532 1532 1533 1533 1534 1535 1535 1536 1537 1537 1538 1538 1539 1539 1539 1539 1540 1540 1540 1540 1540 1540
1500 1500 1502 1504 1508 1510 1508 1509 1510 1511 1513 1515 1516 1519 1524 1527 1528 1529 1530 1530 1531 1532 1532 1532 1532 1533 1533 1533 1534 1534 1535 1536 1536 1537 1538 1538 1539 1539 1540 1540 1541 1541 1541 1541 1542 1542 1542 1542 1542
1500 1504 1507 1506 1508 1510 1509 1510 1512 1514 1515 1517 1518 1520 1524 1527 1528 1529 1530 1531 1532 1533 1534 1534 1534 1535 1535 1535 1536 1536 1537 1537 1538 1539 1539 1540 1540 1541 1541 1542 1543 1543 1543 1543 1543 1543 1543 1543 1543
1500 1507 1506 1502 1504 1507 1510 1511 1513 1515 1517 1519 1521 1523 1525 1527 1529 1530 1531 1532 1532 1533 1535 1535 1536 1536 1537 1537 1537 1538 1538 1539 1539 1540 1541 1541 1542 1542 1543 1544 1544 1545 1545 1545 1545 1545 1545 1545 1545
1500 1504 1504 1504 1506 1508 1510 1512 1514 1515 1518 1520 1522 1524 1526 1528 1529 1530 1531 1532 1533 1535 1536 1536 1537 1538 1538 1538 1539 1539 1540 1540 1541 1541 1542 1542 1543 1543 1544 1545 1545 1546 1546 1546 1546 1546 1546 1547 1547
1503 1505 1506 1507 1509 1510 1511 1513 1516 1517 1520 1521 1523 1525 1527 1528 1530 1531 1532 1533 1534 1535 1536 1537 1538 1539 1539 1539 1539 1540 1540 1541 1542 1542 1543 1543 1544 1545 1545 1546 1547 1547 1547 1547 1548 1548 1548 1548 1548
1505 1507 1508 1509 1511 1512 1513 1515 1517 1520 1521 1523 1524 1526 1527 1529 1530 1532 1533 1534 1535 1536 1537 1538 1539 1540 1540 1540 1540 1541 1541 1542 1542 1543 1544 1544 1545 1546 1546 1547 1548 1548 1549 1549 1549 1549 1549 1549 1549
1507 1509 1509 1511 1511 1513 1514 1516 1518 1521 1522 1524 1525 1527 1528 1529 1531 1532 1533 1534 1535 1536 1538 1538 1539 1540 1540 1541 1541 1541 1542 1543 1543 1544 1544 1545 1546 1546 1547 1548 1548 1549 1549 1550 1550 1550 1550 1550 1551
1507 1509 1510 1511 1512 1513 1515 1518 1519 1521 1522 1524 1525 1527 1529 1530 1531 1532 1534 1535 1536 1537 1538 1539 1539 1540 1541 1542 1542 1542 1543 1543 1544 1544 1545 1546 1546 1547 1547 1548 1549 1550 1550 1550 1550 1550 1551 1551 1552
1507 1511 1515 1511 1511 1513 1518 1524 1519 1521 1522 1524 1525 1527 1529 1530 1531 1532 1534 1535 1536 1537 1538 1538 1540 1540 1541 1542 1543 1543 1544 1544 1545 1545 1546 1547 1547 1547 1548 1549 1549 1550 1550 1551 1551 1551 1551 1552 1553
1509 1515 1515 1513 1509 1511 1515 1521 1518 1519 1521 1522 1524 1526 1528 1530 1531 1532 1534 1535 1536 1537 1538 1538 1539 1541 1541 1542 1543 1543 1544 1545 1545 1546 1547 1547 1548 1548 1549 1549 1550 1550 1550 1551 1551 1552 1552 1553 1553
1512 1512 1513 1513 1509 1510 1514 1517 1516 1518 1519 1521 1523 1524 1526 1528 1530 1532 1533 1535 1535 1536 1538 1538 1539 1540 1541 1542 1543 1544 1545 1545 1546 1547 1547 1548 1548 1549 1549 1549 1550 1550 1551 1551 1551 1552 1553 1553 1553
1504 1509 1512 1510 1507 1510 1513 1515 1514 1515 1517 1519 1521 1523 1525 1527 1529 1531 1533 1534 1535 1536 1537 1538 1539 1540 1541 1542 1543 1544 1545 1545 1546 1547 1547 1548 1548 1549 1549 1550 1550 1551 1551 1551 1552 1552 1553 1553 1554
1504 1509 1511 1509 1506 1508 1511 1512 1510 1513 1515 1517 1519 1521 1523 1525 1528 1530 1532 1533 1534 1535 1536 1537 1538 1539 1540 1542 1543 1544 1545 1545 1546 1547 1547 1548 1548 1549 1549 1550 1550 1551 1551 1551 1552 1553 1553 1553 1554
1504 1507 1508 1510 1506 1505 1509 1514 1510 1510 1513 1516 1517 1519 1521 1523 1526 1528 1530 1532 1533 1535 1536 1537 1538 1539 1540 1541 1542 1543 1544 1545 1546 1546 1547 1548 1548 1548 1549 1550 1550 1551 1551 1551 1552 1552 1553 1553 1554
1508 1501 1503 1505 1511 1514 1509 1523 1510 1506 1510 1513 1515 1517 1519 1522 1524 1526 1529 1530 1532 1534 1535 1536 1537 1538 1539 1540 1541 1543 1544 1545 1545 1546 1547 1547 1547 1548 1548 1549 1550 1550 1551 1551 1552 1552 1553 1553 1554
1504 1500 1501 1503 1507 1512 1507 1515 1511 1504 1509 1510 1512 1515 1518 1520 1522 1525 1527 1529 1531 1532 1534 1535 1536 1537 1539 1539 1540 1542 1543 1544 1545 1545 1546 1546 1547 1547 1548 1548 1549 1550 1550 1551 1551 1552 1552 1552 1553
1501 1501 1500 1501 1507 1519 1506 1512 1514 1504 1504 1505 1509 1512 1515 1518 1520 1523 1526 1528 1530 1531 1532 1534 1535 1536 1537 1538 1539 1541 1542 1543 1544 1544 1545 1546 1546 1547 1547 1548 1548 1549 1549 1550 1550 1551 1551 1552 1552
1501 1509 1520 1521 1522 1516 1497 1505 1509 1499 1498 1502 1506 1510 1513 1516 1519 1521 1524 1526 1528 1530 1531 1533 1534 1535 1536 1537 1538 1540 1541 1542 1543 1543 1544 1545 1545 1546 1546 1546 1547 1547 1548 1549 1549 1550 1550 1551 1551
1500 1504 1521 1528 1522 1510 1497 1506 1504 1497 1499 1502 1505 1509 1512 1515 1517 1520 1522 1525 1527 1528 1530 1531 1533 1534 1535 1536 1537 1538 1540 1541 1542 1542 1543 1543 1544 1545 1545 1545 1546 1546 1547 1548 1548 1549 1549 1550 1550
1502 1502 1499 1508 1507 1511 1505 1503 1501 1497 1500 1503 1506 1508 1511 1514 1516 1519 1521 1523 1525 1527 1528 1530 1531 1532 1533 1535 1536 1537 1538 1539 1540 1541 1542 1542 1543 1543 1544 1544 1545 1545 1546 1546 1547 1547 1548 1548 1549
1497 1498 1502 1509 1519 1521 1510 1506 1507 1502 1501 1503 1505 1508 1511 1513 1515 1517 1520 1521 1523 1525 1527 1528 1529 1530 1531 1533 1533 1535 1536 1537 1538 1539 1540 1540 1541 1542 1542 1543 1543 1544 1544 1545 1545 1546 1546 1547 1547
1498 1500 1501 1505 1506 1519 1523 1516 1495 1498 1499 1502 1504 1507 1510 1512 1514 1516 1518 1520 1522 1523 1524 1526 1527 1529 1530 1531 1532 1533 1534 1535 1535 1536 1537 1538 1539 1540 1540 1541 1542 1542 1543 1543 1544 1544 1545 1545 1545
1494 1497 1501 1514 1513 1508 1515 1516 1494 1496 1498 1501 1504 1507 1509 1512 1514 1516 1517 1519 1520 1522 1523 1524 1525 1526 1528 1529 1529 1530 1531 1532 1533 1534 1535 1536 1537 1538 1538 1539 1540 1541 1541 1542 1542 1543 1543 1543 1543